Theta_e
353 340 341 336 333 335 332 330 330 331 330 329 329 330 330 332 332 332 339 345 346 346 348 351 353 356 356 352 351 349 347 344 340 338 336 337 334 334 333 333 332 331 330
346 341 337 334 334 332 330 330 331 331 329 328 329 330 331 333 335 335 333 341 344 343 343 345 348 351 355 355 353 351 349 347 342 339 337 337 335 334 333 334 332 331 330
349 342 334 334 334 334 332 332 331 331 327 328 331 332 332 334 335 335 335 335 340 342 340 338 339 342 345 351 354 352 350 348 344 341 339 338 336 334 333 334 333 332 330
343 340 333 332 334 334 332 330 327 327 327 328 332 332 333 335 335 335 334 334 336 336 339 339 336 337 341 344 347 353 352 348 346 343 341 338 337 335 334 334 334 332 331
336 337 332 334 336 332 330 329 329 330 327 329 330 332 334 332 333 332 333 333 334 334 334 338 342 335 343 346 348 349 351 350 346 344 340 339 338 336 334 334 334 333 331
334 336 333 336 334 332 330 331 335 330 328 329 325 330 332 331 331 332 331 328 329 331 332 334 336 336 346 345 343 345 348 352 348 345 342 341 339 337 335 335 334 333 331
335 339 333 337 336 334 335 336 332 332 326 332 328 329 331 336 332 330 331 328 329 330 331 332 333 335 341 341 339 339 344 348 351 346 342 341 341 337 336 335 334 333 331
337 337 341 337 338 334 337 335 337 329 326 330 326 323 321 328 328 328 328 327 328 328 327 331 334 337 337 338 339 335 337 342 348 349 345 342 341 338 336 335 334 333 331
335 341 337 337 339 338 333 336 335 337 326 328 333 324 318 314 320 328 329 328 329 327 328 330 334 335 337 336 338 335 330 334 341 345 346 344 341 339 337 337 335 333 331
336 338 340 338 342 334 341 335 334 333 337 326 328 329 331 329 319 317 324 326 326 327 329 329 331 332 336 333 336 329 328 328 331 335 341 345 344 341 339 338 335 334 332
338 336 338 339 341 335 339 337 337 337 330 327 323 324 328 326 326 319 316 319 323 326 325 326 330 329 333 331 329 330 328 330 327 326 331 337 344 344 341 339 336 335 332
334 340 337 342 341 341 338 336 337 336 336 333 328 326 323 321 319 319 317 323 320 324 325 326 328 327 331 327 328 329 327 328 325 324 325 330 335 342 342 340 338 336 334
332 340 343 343 339 341 340 339 339 337 336 332 333 326 327 324 324 322 319 317 317 320 322 326 326 326 328 327 327 326 328 327 323 322 323 326 330 333 340 339 338 337 334
336 342 343 343 342 339 338 339 335 333 336 333 332 331 327 325 324 323 320 318 315 317 321 325 325 326 327 327 328 329 326 326 323 321 322 324 326 327 333 334 335 335 333
336 343 341 342 342 339 338 339 334 334 335 335 334 332 328 326 325 324 323 321 318 313 315 322 320 332 326 327 327 327 328 327 324 322 322 323 324 324 325 328 329 330 330
342 341 341 342 341 339 338 339 337 336 335 331 329 331 330 327 327 324 323 322 321 318 314 319 320 328 331 326 327 330 328 325 325 324 323 324 323 322 322 325 325 326 327
341 339 338 337 337 337 340 340 340 334 332 333 331 329 328 329 326 325 324 322 321 319 315 317 320 326 330 330 329 330 327 328 325 324 326 325 322 320 320 322 323 324 325
343 340 339 336 335 334 338 336 335 331 330 330 331 330 327 326 329 329 323 327 323 324 318 320 322 320 326 330 331 327 324 323 325 325 324 323 321 319 319 319 320 320 320
335 337 336 333 333 336 335 336 332 329 330 330 330 329 327 327 326 324 323 321 320 319 320 317 316 320 322 324 325 327 325 325 325 324 319 321 321 319 317 316 317 316 314
334 335 335 334 335 335 336 336 333 333 332 330 331 330 328 326 325 323 321 321 321 318 318 314 315 316 319 325 323 319 317 318 317 319 321 319 321 320 319 316 316 315 311
333 333 334 335 337 336 333 338 336 334 333 332 331 329 328 321 316 315 314 316 317 314 312 312 312 314 315 317 316 317 314 314 316 319 320 322 323 323 322 317 319 315 311
336 333 332 332 334 333 316 318 332 336 333 331 329 328 328 321 317 312 311 311 312 313 312 311 312 313 316 316 316 314 313 311 309 318 319 315 324 319 319 318 313 309 307
339 335 334 332 332 334 309 311 316 335 333 330 328 327 325 322 319 320 312 310 309 308 307 314 313 313 314 316 313 312 313 312 312 315 316 312 321 316 314 312 308 307 306
340 335 337 336 334 328 305 305 309 330 329 328 328 326 325 323 320 317 317 315 315 317 318 316 317 317 316 314 313 313 313 312 314 315 318 309 319 313 310 308 306 305 304
338 337 338 338 338 318 302 302 310 325 326 326 325 324 322 321 305 302 312 312 314 315 312 307 306 304 302 301 303 309 307 309 309 311 315 315 313 311 308 306 305 303 302
337 335 337 340 327 321 300 300 307 322 324 321 324 323 309 313 303 300 311 312 311 313 314 315 314 312 307 309 303 308 310 308 309 309 314 312 315 313 306 306 303 302 302
Wind_Speed
3 4 3 3 4 2 3 3 4 4 5 4 5 6 6 4 5 4 7 13 11 9 10 8 6 3 13 13 13 13 13 12 11 10 10 9 8 6 6 5 5 5 4
4 4 3 2 2 3 4 5 5 4 4 5 4 4 4 3 6 5 4 8 11 10 10 11 10 9 4 12 13 13 13 13 13 12 10 10 9 8 7 6 6 6 5
4 3 3 2 2 2 3 2 5 2 3 3 3 4 2 4 6 5 6 4 9 9 11 10 9 9 9 8 9 14 13 13 13 12 11 11 10 9 8 8 7 6 6
6 4 4 3 2 1 1 3 4 4 4 3 4 4 4 4 4 4 6 6 7 5 8 9 4 7 10 9 9 9 13 13 13 12 11 12 11 10 10 10 9 7 7
8 5 4 4 3 1 3 4 3 5 3 2 6 3 3 4 4 5 5 4 5 6 6 4 2 4 8 11 12 10 6 13 14 13 14 12 12 11 11 11 9 8 7
8 6 6 4 3 1 3 4 5 3 4 3 4 4 2 3 5 4 3 4 6 5 6 7 8 4 10 12 11 13 13 10 16 15 14 14 14 13 12 12 10 9 8
8 6 6 5 2 2 4 0 1 4 5 2 4 5 5 4 2 3 2 4 7 4 4 4 5 6 4 14 17 16 15 15 14 16 15 15 14 15 14 13 12 10 9
9 7 6 6 4 5 2 2 4 1 4 6 4 4 3 5 7 3 4 4 6 5 7 5 6 6 6 6 8 16 17 17 16 16 16 15 15 15 14 14 13 11 10
10 7 7 5 5 4 5 3 1 5 3 4 7 5 3 4 4 5 4 2 3 4 5 5 5 4 6 8 6 10 17 18 17 16 11 16 16 16 16 15 14 13 11
9 7 7 7 6 2 5 4 1 2 5 3 4 6 6 4 5 2 1 2 2 2 3 5 5 5 4 7 6 15 15 15 16 17 16 12 18 18 17 16 15 14 12
11 9 9 8 6 5 3 3 3 3 3 3 4 2 2 4 2 3 6 6 5 1 4 5 4 5 4 6 7 9 12 12 12 15 17 17 14 19 18 16 16 15 13
10 11 11 8 8 4 6 4 3 2 4 4 4 3 4 3 4 4 5 6 7 5 3 2 3 5 3 6 5 8 12 10 9 11 15 17 17 16 18 17 16 16 14
12 11 10 9 8 7 7 5 5 4 3 4 3 2 2 3 3 4 5 6 7 6 2 1 3 3 4 6 7 8 15 5 6 9 11 13 15 16 16 15 16 16 13
13 14 11 10 10 10 8 7 6 5 5 4 3 3 4 3 4 4 5 7 8 7 6 2 5 2 4 5 6 8 11 6 7 11 10 9 10 13 13 12 11 11 10
12 15 13 11 11 11 10 9 5 5 5 5 4 2 4 2 3 4 4 5 7 8 8 9 8 8 8 8 7 9 10 9 14 15 12 8 7 10 12 12 9 10 10
12 17 14 12 11 11 11 10 8 7 6 5 3 3 1 4 4 4 5 5 6 7 9 9 9 10 9 9 11 9 11 12 12 11 11 6 7 8 10 11 10 7 9
8 11 14 12 11 11 10 9 8 9 8 6 3 4 2 1 4 5 5 5 6 7 9 9 10 10 10 10 8 10 11 12 10 8 3 5 8 7 8 8 8 8 8
5 11 12 13 12 13 11 11 9 10 10 8 7 4 3 3 4 4 5 5 6 7 8 10 10 9 10 9 7 5 9 11 11 8 7 7 7 9 9 7 10 11 10
8 11 11 13 13 12 13 12 12 10 10 8 5 4 3 4 5 5 6 7 7 7 8 10 11 10 8 8 8 7 6 9 12 4 8 9 2 7 8 7 12 12 12
20 15 15 14 13 12 11 11 12 10 9 8 6 4 4 5 6 5 6 7 8 8 9 10 10 10 9 8 8 9 10 9 9 11 13 3 7 9 9 8 13 15 15
22 23 19 15 13 12 11 12 11 10 9 8 6 5 7 2 2 2 5 7 8 8 9 10 10 11 10 10 10 9 10 9 10 7 7 7 8 5 4 6 12 19 17
22 22 19 22 18 10 13 14 10 9 10 8 6 5 7 7 11 9 11 11 7 8 10 9 10 10 11 10 7 8 8 9 9 6 6 5 5 5 3 1 13 19 18
19 19 18 17 16 17 17 16 9 10 8 7 7 5 7 4 4 7 9 13 12 16 15 11 11 12 12 10 7 9 11 10 10 8 6 8 4 3 4 3 12 17 18
17 17 17 17 14 10 15 15 12 9 8 8 7 6 8 9 7 6 8 11 11 10 9 8 11 12 10 7 7 8 12 12 11 8 5 6 4 2 3 3 8 13 15
16 16 15 17 16 13 16 15 12 9 9 9 8 7 7 8 3 7 8 12 11 10 8 10 13 14 9 10 10 10 11 10 10 7 5 4 6 3 2 2 4 9 11
16 14 15 16 16 15 12 14 9 7 8 7 7 8 9 12 7 10 8 11 11 10 10 10 10 9 10 12 14 12 10 11 10 7 6 8 3 4 2 2 3 4 5
Wind_Direction
127 212 80 334 338 353 7 340 10 1 330 334 350 358 3 344 338 341 91 87 77 52 34 31 28 262 220 214 217 217 223 226 226 229 236 233 239 247 252 256 261 268 274
161 125 173 119 35 1 16 338 13 331 330 334 21 17 353 341 30 350 17 106 102 87 57 36 32 28 8 223 223 222 218 221 226 230 230 234 238 240 245 250 262 265 274
166 113 108 164 72 53 310 348 298 330 345 326 41 84 122 49 62 27 11 28 134 113 95 60 34 32 26 2 249 227 223 216 224 229 229 235 240 240 242 248 250 255 270
149 198 174 123 66 5 5 27 0 340 16 6 47 17 90 76 68 52 38 13 359 4 136 91 52 39 38 14 347 332 227 216 219 221 226 232 237 240 241 247 248 246 261
161 185 140 113 232 71 34 344 42 347 42 327 137 91 97 65 3 59 19 7 38 348 339 82 256 149 79 47 23 357 326 223 216 214 220 227 234 240 243 247 237 240 248
159 181 126 139 225 130 70 48 10 15 0 340 31 94 105 63 8 70 54 29 13 344 12 350 319 136 108 82 49 21 5 330 209 209 214 216 220 231 239 239 240 238 240
162 168 148 163 165 100 35 221 211 50 39 4 235 151 166 199 349 2 18 23 3 353 10 6 359 347 112 109 64 30 5 346 217 212 215 219 214 226 230 232 238 235 237
165 181 155 170 169 132 111 55 323 122 75 21 347 268 186 174 153 72 351 16 11 341 355 30 9 5 347 340 85 49 13 4 351 221 217 219 214 222 229 231 230 227 230
175 184 184 175 183 203 142 170 82 321 97 84 34 345 311 26 306 154 158 358 344 339 350 346 60 4 1 326 343 26 11 359 357 349 257 221 222 224 229 228 228 225 224
178 168 181 160 203 179 118 148 120 15 322 69 99 77 46 26 356 27 117 103 355 1 40 348 21 347 17 343 4 53 12 353 355 350 338 292 224 226 230 229 227 222 223
183 177 182 172 192 198 155 126 174 8 74 41 46 59 89 173 108 335 337 350 356 10 20 355 10 346 19 347 338 31 4 333 346 350 340 332 277 224 227 227 228 216 220
180 191 180 174 183 161 172 173 149 112 62 52 78 12 30 13 13 345 335 324 330 342 55 335 350 345 354 347 13 6 343 317 331 345 340 334 322 259 222 222 227 215 213
179 181 181 180 180 184 170 162 196 156 159 90 16 20 35 26 354 342 325 338 321 315 340 41 35 328 317 329 343 13 320 287 353 338 332 324 323 322 234 220 225 221 216
172 160 181 177 183 180 179 186 185 192 126 144 105 29 324 18 349 342 336 329 322 333 341 25 339 47 276 355 330 334 324 319 339 320 302 298 314 316 267 217 210 222 203
170 159 176 180 183 178 182 184 193 184 169 192 137 152 295 3 352 329 317 322 320 323 324 332 330 337 345 337 337 315 311 322 315 295 285 280 309 310 295 231 210 207 191
186 157 173 183 180 185 186 192 151 167 192 194 192 161 293 23 310 308 315 310 310 308 303 315 319 340 339 333 315 314 317 304 302 274 259 276 301 311 300 231 204 215 192
119 168 167 182 180 187 189 194 200 163 186 185 173 197 197 210 313 311 326 308 312 316 308 307 314 311 314 290 305 309 318 310 310 315 229 311 308 302 297 238 189 184 198
110 186 178 188 193 195 190 192 200 183 193 193 200 208 256 322 309 295 292 322 316 294 293 300 300 306 303 297 301 324 312 310 312 22 351 323 305 319 297 227 175 165 160
211 214 190 188 200 200 197 199 200 198 206 199 209 225 262 301 301 319 309 304 303 309 302 297 305 293 304 301 316 298 317 295 285 343 321 303 349 318 297 220 166 153 145
178 214 201 195 197 199 197 203 205 202 208 211 195 243 269 286 287 304 303 308 290 314 308 291 300 309 309 317 320 337 328 321 318 319 305 328 338 325 315 198 149 142 133
187 177 184 190 191 196 199 200 205 202 206 217 205 228 255 1 108 279 288 298 310 304 307 304 304 309 314 341 335 323 308 316 306 290 329 350 332 334 338 177 143 134 133
189 188 186 173 174 196 190 179 197 201 206 211 226 241 275 206 210 194 206 228 259 280 289 296 303 307 310 318 335 324 310 301 305 316 334 331 323 352 349 162 139 135 133
192 188 185 181 179 180 154 145 147 198 207 220 225 251 279 296 314 288 224 225 237 231 231 266 284 288 300 306 320 304 298 305 297 300 315 306 322 358 14 86 139 135 137
196 190 188 180 182 148 138 139 144 195 209 235 249 253 266 282 307 301 295 289 280 283 261 251 256 278 287 281 300 297 299 291 279 275 272 274 312 51 39 61 124 131 134
196 194 184 177 177 147 142 139 157 193 218 228 245 256 270 286 155 141 277 277 284 291 298 256 258 268 257 263 267 279 272 273 281 280 269 254 255 99 67 72 109 124 131
190 184 184 180 149 145 143 143 179 218 211 233 241 258 211 241 207 176 263 285 287 292 296 302 304 277 258 259 237 241 263 267 274 294 259 254 199 167 141 84 124 131 128